SM7GXQ Farjestaden SE current weather conditions

sailwx.info

Wind from 220 at 0 knots gusting 2

Air temperature 18.9° C
Dewpoint 16.1° C

Last reported at 2019-Aug-23 21:00 UTC.
Time now 2019-Aug-23 21:52 UTC

Location: N 56°39' E 016°28'.
View on Google Maps.

See reports from other nearby stations

  
Tides and Currents Weather Stations Pressure Air Temp Water Temp Dewpoint Dewpoint Depression Visibility Wind Speed Wind Dir Waves Ship Positions
date/time (UTC)wind fromknots sea level pressurealtimeterstation pressurevisibilityair tempwater tempwave heightnotes
2019-Aug-23 21:00 220 0 gusting 2 18.9
2019-Aug-23 20:45 207 0 gusting 2 19.4
2019-Aug-23 20:15 156 1 gusting 6 19.4
2019-Aug-23 20:00 204 1 gusting 6 20.0
2019-Aug-23 19:30 277 0 gusting 7 20.0
2019-Aug-23 19:15 245 0 gusting 6 20.0
2019-Aug-23 18:30 235 1 gusting 6 21.1
2019-Aug-23 17:45 287 5 gusting 7 21.7
2019-Aug-23 17:30 288 6 gusting 6 21.7
2019-Aug-23 16:45 211 2 gusting 6 21.1
2019-Aug-23 16:30 228 1 gusting 5 21.7
2019-Aug-23 16:15 160 0 gusting 6 21.1
2019-Aug-23 16:00 212 3 gusting 10 21.1
2019-Aug-23 15:45 208 3 gusting 10 21.7
2019-Aug-23 15:15 197 4 gusting 13 22.2
2019-Aug-23 14:45 209 5 gusting 13 22.8
2019-Aug-23 14:30 202 5 gusting 12 23.3
2019-Aug-23 14:00 202 6 gusting 17 23.3
2019-Aug-23 13:30 207 4 gusting 15 23.9
2019-Aug-23 13:15 190 5 gusting 14 23.9
2019-Aug-23 13:00 205 4 gusting 14 23.9
2019-Aug-23 12:45 186 6 gusting 17 23.9
2019-Aug-23 12:30 209 6 gusting 13 23.9
2019-Aug-23 12:15 197 4 gusting 10 23.9
2019-Aug-23 12:00 205 4 gusting 13 23.9
2019-Aug-23 11:30 207 4 gusting 11 23.9
2019-Aug-23 11:15 216 2 gusting 10 23.9
2019-Aug-23 11:00 233 5 gusting 12 23.3
2019-Aug-23 10:30 210 3 gusting 14 22.8
2019-Aug-23 10:15 208 4 gusting 10 22.2
2019-Aug-23 10:00 206 5 gusting 12 21.7
2019-Aug-23 09:45 206 3 gusting 12 21.7
2019-Aug-23 09:15 215 5 gusting 10 21.7
2019-Aug-23 08:45 223 5 gusting 12 21.7
2019-Aug-23 08:15 197 2 gusting 10 20.6
2019-Aug-23 08:00 204 2 gusting 8 20.0
2019-Aug-23 07:45 195 2 gusting 8 20.0
2019-Aug-23 07:30 206 4 gusting 8 20.0
2019-Aug-23 07:15 176 3 gusting 8 19.4
2019-Aug-23 07:00 200 2 gusting 7 19.4
2019-Aug-23 05:45 194 2 gusting 6 18.3
2019-Aug-23 05:30 176 1 gusting 6 17.8
2019-Aug-23 05:00 188 1 gusting 6 17.8
2019-Aug-23 04:00 179 1 gusting 5 17.2
2019-Aug-23 03:45 175 1 gusting 4 17.2
2019-Aug-23 03:30 200 0 gusting 5 17.2
2019-Aug-23 03:00 196 1 gusting 6 17.2
2019-Aug-23 02:15 161 1 gusting 6 17.2
2019-Aug-23 02:00 191 2 gusting 5 17.8
2019-Aug-23 01:45 191 1 gusting 4 17.8
2019-Aug-23 01:30 232 1 gusting 6 17.8
2019-Aug-23 01:00 182 2 gusting 6 17.8
2019-Aug-22 23:45 179 4 gusting 7 17.8
2019-Aug-22 23:30 176 2 gusting 6 17.8
2019-Aug-22 23:00 199 4 gusting 8 17.8
2019-Aug-22 22:45 179 5 gusting 8 17.8
2019-Aug-22 22:30 177 4 gusting 10 17.8
2019-Aug-22 22:15 179 2 gusting 6 17.2
2019-Aug-22 22:00 169 2 gusting 6 17.2
2019-Aug-22 21:45 174 2 gusting 7 16.7
2019-Aug-22 21:30 170 2 gusting 6 16.7
2019-Aug-22 21:00 154 2 gusting 6 16.1
2019-Aug-22 20:30 150 3 gusting 5 16.1
2019-Aug-22 20:15 148 3 gusting 6 16.1
2019-Aug-22 19:30 158 1 gusting 6 16.7
2019-Aug-22 19:15 160 1 gusting 5 16.7
2019-Aug-22 19:00 175 2 gusting 6 17.2
2019-Aug-22 18:45 168 2 gusting 6 17.2
2019-Aug-22 18:30 170 2 gusting 6 17.8
2019-Aug-22 18:15 195 2 gusting 8 17.8
2019-Aug-22 18:00 173 3 gusting 10 17.8
2019-Aug-22 17:45 191 4 gusting 11 17.8
2019-Aug-22 17:30 173 4 gusting 6 18.3
2019-Aug-22 17:15 183 4 gusting 8 18.3
2019-Aug-22 16:30 185 4 gusting 10 19.4
2019-Aug-22 15:45 190 5 gusting 12 20.6
2019-Aug-22 15:00 191 5 gusting 14 20.0
2019-Aug-22 14:45 193 4 gusting 15 20.6
2019-Aug-22 14:30 206 5 gusting 13 20.6
2019-Aug-22 14:15 208 5 gusting 13 21.1
2019-Aug-22 14:00 183 6 gusting 13 20.6
2019-Aug-22 13:45 207 6 gusting 14 21.1
2019-Aug-22 13:30 213 4 gusting 14 21.1
2019-Aug-22 13:15 214 5 gusting 13 21.1
2019-Aug-22 12:45 207 5 gusting 11 21.1
2019-Aug-22 12:30 203 5 gusting 14 21.1
2019-Aug-22 12:15 178 4 gusting 13 20.6
2019-Aug-22 12:00 191 5 gusting 13 21.1
2019-Aug-22 11:45 207 5 gusting 14 20.6
2019-Aug-22 11:15 209 4 gusting 15 20.6
2019-Aug-22 11:00 195 6 gusting 13 20.6
2019-Aug-22 10:45 202 5 gusting 13 20.6
2019-Aug-22 10:00 189 3 gusting 11 20.0
2019-Aug-22 09:15 192 2 gusting 10 19.4
2019-Aug-22 08:45 217 2 gusting 10 19.4
2019-Aug-22 08:30 191 2 gusting 7 18.9
2019-Aug-22 08:15 207 3 gusting 7 18.9
2019-Aug-22 07:45 220 3 gusting 6 18.3
2019-Aug-22 07:30 242 1 gusting 6 17.8
2019-Aug-22 07:15 200 2 gusting 5 17.2
2019-Aug-22 06:45 215 1 gusting 6 17.2
2019-Aug-22 06:30 191 1 gusting 6 16.7
2019-Aug-22 06:00 204 0 gusting 5 15.6
2019-Aug-22 05:45 180 0 gusting 2 14.4
2019-Aug-22 05:30 160 0 gusting 2 14.4
2019-Aug-22 05:00 145 0 gusting 1 13.9
2019-Aug-22 04:30 155 13.3
2019-Aug-22 04:15 124 0 gusting 2 13.3
2019-Aug-22 04:00 160 0 gusting 2 12.8
2019-Aug-22 03:45 199 1 gusting 5 12.8
2019-Aug-22 03:15 162 1 gusting 4 12.8
2019-Aug-22 03:00 228 1 gusting 4 12.8
2019-Aug-22 02:30 261 1 gusting 4 13.3
2019-Aug-22 02:00 233 2 gusting 7 13.3
2019-Aug-22 01:45 194 0 gusting 5 13.3
2019-Aug-22 00:45 305 1 gusting 4 13.9
2019-Aug-22 00:00 271 2 gusting 6 13.9
2019-Aug-21 23:30 283 2 gusting 6 14.4
2019-Aug-21 23:15 286 3 gusting 6 14.4
2019-Aug-21 23:00 280 4 gusting 6 14.4
2019-Aug-21 22:45 275 3 gusting 7 14.4
2019-Aug-21 22:30 281 4 gusting 7 15.0
2019-Aug-21 22:00 289 4 gusting 6 15.0
2019-Aug-21 21:30 275 3 gusting 6 15.0
2019-Aug-21 21:15 285 1 gusting 7 15.0
2019-Aug-21 21:00 264 2 gusting 7 15.0